Tracking 27112 objects as of 27-Mar-2023
HD Live streaming from Space Station
objects crossing your sky now

SS 1

Track SS 1 now!
10-day predictions
SS 1 is classified as:


NORAD ID: 10529
Int'l Code: 1977-112D
Perigee: 477.5 km
Apogee: 1,430.6 km
Inclination: 63.3 °
Period: 104.0 minutes
Semi major axis: 7325 km
RCS: Unknown
Launch date: December 8, 1977
Source: United States (US)
Launch site: AIR FORCE WESTERN TEST RANGE (AFWTR)
Your satellite tracking list
Your tracking list is empty




NASA's NSSDC Master Catalog

Two Line Element Set (TLE):
1 10529U 77112D   23085.95261210  .00002436  00000-0  41122-3 0  9997
2 10529  63.3244  41.9127 0650593 144.8812 219.6984 13.84798712188647
Source of the keplerian elements: McCants